Time,TemperatureF,DewpointF,PressureIn,WindDirection,WindDirectionDegrees,WindSpeedMPH,WindSpeedGustMPH,Humidity,HourlyPrecipIn,Conditions,Clouds,dailyrainin,SoftwareType,DateUTC
2013-05-14 00:02:00,56.0,42.0,-100.00,South,185,5.0,5.0,60,-99.99,,,-99.99,,2013-05-14 05:02:00,
2013-05-14 00:32:00,61.0,45.0,-100.00,South,170,6.0,7.0,55,-99.99,,,-99.99,,2013-05-14 05:32:00,
2013-05-14 00:42:00,61.0,45.0,-100.00,South,170,6.0,7.0,55,-99.99,,,-99.99,,2013-05-14 05:42:00,
2013-05-14 00:52:00,61.0,45.0,-100.00,South,170,6.0,7.0,55,-99.99,,,-99.99,,2013-05-14 05:52:00,
2013-05-14 01:01:00,61.0,45.0,-100.00,South,170,6.0,7.0,55,-99.99,,,-99.99,,2013-05-14 06:01:00,
2013-05-14 01:10:00,61.0,43.0,-100.00,SSE,155,5.0,6.0,52,-99.99,,,-99.99,,2013-05-14 06:10:00,
2013-05-14 01:32:00,61.0,43.0,-100.00,SSE,155,5.0,6.0,52,-99.99,,,-99.99,,2013-05-14 06:32:00,
2013-05-14 01:42:00,61.0,43.0,-100.00,SSE,155,5.0,6.0,52,-99.99,,,-99.99,,2013-05-14 06:42:00,
2013-05-14 01:52:00,61.0,43.0,-100.00,SSE,155,5.0,6.0,52,-99.99,,,-99.99,,2013-05-14 06:52:00,
2013-05-14 02:02:00,61.0,43.0,-100.00,SSE,155,5.0,6.0,52,-99.99,,,-99.99,,2013-05-14 07:02:00,
2013-05-14 02:32:00,58.0,42.0,-100.00,South,185,7.0,7.0,56,-99.99,,,-99.99,,2013-05-14 07:32:00,
2013-05-14 02:42:00,58.0,42.0,-100.00,South,185,7.0,7.0,56,-99.99,,,-99.99,,2013-05-14 07:42:00,
2013-05-14 02:52:00,58.0,42.0,-100.00,South,185,7.0,7.0,56,-99.99,,,-99.99,,2013-05-14 07:52:00,
2013-05-14 03:02:00,58.0,42.0,-100.00,South,185,7.0,7.0,56,-99.99,,,-99.99,,2013-05-14 08:02:00,
2013-05-14 03:32:00,59.0,43.0,-100.00,South,175,8.0,8.0,56,-99.99,,,-99.99,,2013-05-14 08:32:00,
2013-05-14 03:42:00,59.0,43.0,-100.00,South,175,8.0,8.0,56,-99.99,,,-99.99,,2013-05-14 08:42:00,
2013-05-14 03:52:00,59.0,43.0,-100.00,South,175,8.0,8.0,56,-99.99,,,-99.99,,2013-05-14 08:52:00,
2013-05-14 04:02:00,59.0,43.0,-100.00,South,175,8.0,8.0,56,-99.99,,,-99.99,,2013-05-14 09:02:00,
2013-05-14 04:33:00,66.0,44.0,-100.00,SW,215,8.0,9.0,45,-99.99,,,-99.99,,2013-05-14 09:33:00,
2013-05-14 04:44:00,66.0,44.0,-100.00,SW,215,8.0,9.0,45,-99.99,,,-99.99,,2013-05-14 09:44:00,
2013-05-14 04:54:00,66.0,44.0,-100.00,SW,215,8.0,9.0,45,-99.99,,,-99.99,,2013-05-14 09:54:00,
2013-05-14 05:04:00,66.0,44.0,-100.00,SW,215,8.0,9.0,45,-99.99,,,-99.99,,2013-05-14 10:04:00,
2013-05-14 05:33:00,62.0,46.0,-100.00,West,260,15.0,17.0,57,-99.99,,,-99.99,,2013-05-14 10:33:00,
2013-05-14 05:42:00,62.0,46.0,-100.00,West,260,15.0,17.0,57,-99.99,,,-99.99,,2013-05-14 10:42:00,
2013-05-14 05:52:00,62.0,46.0,-100.00,West,260,15.0,17.0,57,-99.99,,,-99.99,,2013-05-14 10:52:00,
2013-05-14 06:02:00,62.0,46.0,-100.00,West,260,15.0,17.0,57,-99.99,,,-99.99,,2013-05-14 11:02:00,
2013-05-14 06:11:00,58.0,56.0,-100.00,WNW,290,21.0,24.0,94,-99.99,,,-99.99,,2013-05-14 11:11:00,
2013-05-14 06:32:00,58.0,56.0,-100.00,WNW,290,21.0,24.0,94,-99.99,,,-99.99,,2013-05-14 11:32:00,
2013-05-14 06:43:00,58.0,56.0,-100.00,WNW,290,21.0,24.0,94,-99.99,,,-99.99,,2013-05-14 11:43:00,
2013-05-14 06:53:00,58.0,56.0,-100.00,WNW,290,21.0,24.0,94,-99.99,,,-99.99,,2013-05-14 11:53:00,
2013-05-14 07:02:00,58.0,56.0,-100.00,WNW,290,21.0,24.0,94,-99.99,,,-99.99,,2013-05-14 12:02:00,
2013-05-14 07:10:00,59.0,59.0,-100.00,NW,310,7.0,9.0,99,-99.99,,,-99.99,,2013-05-14 12:10:00,
2013-05-14 07:32:00,59.0,59.0,-100.00,NW,310,7.0,9.0,99,-99.99,,,-99.99,,2013-05-14 12:32:00,
2013-05-14 07:42:00,59.0,59.0,-100.00,NW,310,7.0,9.0,99,-99.99,,,-99.99,,2013-05-14 12:42:00,
2013-05-14 07:52:00,59.0,59.0,-100.00,NW,310,7.0,9.0,99,-99.99,,,-99.99,,2013-05-14 12:52:00,
2013-05-14 08:01:00,59.0,59.0,-100.00,NW,310,7.0,9.0,99,-99.99,,,-99.99,,2013-05-14 13:01:00,
2013-05-14 08:10:00,62.0,62.0,-100.00,NE,35,3.0,4.0,99,-99.99,,,-99.99,,2013-05-14 13:10:00,
2013-05-14 08:32:00,62.0,62.0,-100.00,NE,35,3.0,4.0,99,-99.99,,,-99.99,,2013-05-14 13:32:00,
2013-05-14 08:42:00,62.0,62.0,-100.00,NE,35,3.0,4.0,99,-99.99,,,-99.99,,2013-05-14 13:42:00,
2013-05-14 08:52:00,62.0,62.0,-100.00,NE,35,3.0,4.0,99,-99.99,,,-99.99,,2013-05-14 13:52:00,
2013-05-14 09:01:00,62.0,62.0,-100.00,NE,35,3.0,4.0,99,-99.99,,,-99.99,,2013-05-14 14:01:00,
2013-05-14 09:32:00,66.0,64.0,-100.00,SSE,150,7.0,9.0,94,-99.99,,,-99.99,,2013-05-14 14:32:00,
2013-05-14 09:42:00,66.0,64.0,-100.00,SSE,150,7.0,9.0,94,-99.99,,,-99.99,,2013-05-14 14:42:00,
2013-05-14 09:52:00,66.0,64.0,-100.00,SSE,150,7.0,9.0,94,-99.99,,,-99.99,,2013-05-14 14:52:00,
2013-05-14 10:01:00,66.0,64.0,-100.00,SSE,150,7.0,9.0,94,-99.99,,,-99.99,,2013-05-14 15:01:00,
2013-05-14 10:33:00,68.0,64.0,-100.00,SSE,160,18.0,21.0,86,-99.99,,,-99.99,,2013-05-14 15:33:00,
2013-05-14 10:43:00,68.0,64.0,-100.00,SSE,160,18.0,21.0,86,-99.99,,,-99.99,,2013-05-14 15:43:00,
2013-05-14 10:53:00,68.0,64.0,-100.00,SSE,160,18.0,21.0,86,-99.99,,,-99.99,,2013-05-14 15:53:00,
2013-05-14 11:02:00,68.0,64.0,-100.00,SSE,160,18.0,21.0,86,-99.99,,,-99.99,,2013-05-14 16:02:00,
2013-05-14 11:10:00,71.0,64.0,-100.00,SSW,205,17.0,19.0,80,-99.99,,,-99.99,,2013-05-14 16:10:00,
2013-05-14 11:33:00,71.0,64.0,-100.00,SSW,205,17.0,19.0,80,-99.99,,,-99.99,,2013-05-14 16:33:00,
2013-05-14 11:44:00,71.0,64.0,-100.00,SSW,205,17.0,19.0,80,-99.99,,,-99.99,,2013-05-14 16:44:00,
2013-05-14 11:54:00,71.0,64.0,-100.00,SSW,205,17.0,19.0,80,-99.99,,,-99.99,,2013-05-14 16:54:00,
2013-05-14 12:03:00,71.0,64.0,-100.00,SSW,205,17.0,19.0,80,-99.99,,,-99.99,,2013-05-14 17:03:00,
2013-05-14 12:10:00,76.0,63.0,-100.00,WSW,250,27.0,32.0,63,-99.99,,,-99.99,,2013-05-14 17:10:00,
2013-05-14 12:33:00,76.0,63.0,-100.00,WSW,250,27.0,32.0,63,-99.99,,,-99.99,,2013-05-14 17:33:00,
2013-05-14 12:43:00,76.0,63.0,-100.00,WSW,250,27.0,32.0,63,-99.99,,,-99.99,,2013-05-14 17:43:00,
2013-05-14 12:52:00,76.0,63.0,-100.00,WSW,250,27.0,32.0,63,-99.99,,,-99.99,,2013-05-14 17:52:00,
2013-05-14 13:02:00,76.0,63.0,-100.00,WSW,250,27.0,32.0,63,-99.99,,,-99.99,,2013-05-14 18:02:00,
2013-05-14 13:32:00,75.0,54.0,-100.00,West,270,32.0,38.0,48,-99.99,,,-99.99,,2013-05-14 18:32:00,
2013-05-14 13:42:00,75.0,54.0,-100.00,West,270,32.0,38.0,48,-99.99,,,-99.99,,2013-05-14 18:42:00,
2013-05-14 13:52:00,75.0,54.0,-100.00,West,270,32.0,38.0,48,-99.99,,,-99.99,,2013-05-14 18:52:00,
2013-05-14 14:01:00,75.0,54.0,-100.00,West,270,32.0,38.0,48,-99.99,,,-99.99,,2013-05-14 19:01:00,
2013-05-14 14:10:00,74.0,49.0,-100.00,West,270,31.0,37.0,41,-99.99,,,-99.99,,2013-05-14 19:10:00,
2013-05-14 14:32:00,74.0,49.0,-100.00,West,270,31.0,37.0,41,-99.99,,,-99.99,,2013-05-14 19:32:00,
2013-05-14 14:42:00,74.0,49.0,-100.00,West,270,31.0,37.0,41,-99.99,,,-99.99,,2013-05-14 19:42:00,
2013-05-14 14:53:00,74.0,49.0,-100.00,West,270,31.0,37.0,41,-99.99,,,-99.99,,2013-05-14 19:53:00,
2013-05-14 15:02:00,74.0,49.0,-100.00,West,270,31.0,37.0,41,-99.99,,,-99.99,,2013-05-14 20:02:00,
2013-05-14 15:10:00,74.0,48.0,-100.00,WNW,285,37.0,42.0,41,-99.99,,,-99.99,,2013-05-14 20:10:00,
2013-05-14 15:33:00,74.0,48.0,-100.00,WNW,285,37.0,42.0,41,-99.99,,,-99.99,,2013-05-14 20:33:00,
2013-05-14 15:44:00,74.0,48.0,-100.00,WNW,285,37.0,42.0,41,-99.99,,,-99.99,,2013-05-14 20:44:00,
2013-05-14 15:52:00,74.0,48.0,-100.00,WNW,285,37.0,42.0,41,-99.99,,,-99.99,,2013-05-14 20:52:00,
2013-05-14 16:03:00,74.0,48.0,-100.00,WNW,285,37.0,42.0,41,-99.99,,,-99.99,,2013-05-14 21:03:00,
2013-05-14 16:10:00,73.0,50.0,-100.00,West,280,31.0,34.0,45,-99.99,,,-99.99,,2013-05-14 21:10:00,
2013-05-14 16:34:00,73.0,50.0,-100.00,West,280,31.0,34.0,45,-99.99,,,-99.99,,2013-05-14 21:34:00,
2013-05-14 16:43:00,73.0,50.0,-100.00,West,280,31.0,34.0,45,-99.99,,,-99.99,,2013-05-14 21:43:00,
2013-05-14 16:53:00,73.0,50.0,-100.00,West,280,31.0,34.0,45,-99.99,,,-99.99,,2013-05-14 21:53:00,
2013-05-14 17:03:00,73.0,50.0,-100.00,West,280,31.0,34.0,45,-99.99,,,-99.99,,2013-05-14 22:03:00,
2013-05-14 17:11:00,69.0,50.0,-100.00,WNW,300,27.0,32.0,51,-99.99,,,-99.99,,2013-05-14 22:11:00,
2013-05-14 17:35:00,69.0,50.0,-100.00,WNW,300,27.0,32.0,51,-99.99,,,-99.99,,2013-05-14 22:35:00,
2013-05-14 17:45:00,69.0,50.0,-100.00,WNW,300,27.0,32.0,51,-99.99,,,-99.99,,2013-05-14 22:45:00,
2013-05-14 17:54:00,69.0,50.0,-100.00,WNW,300,27.0,32.0,51,-99.99,,,-99.99,,2013-05-14 22:54:00,
2013-05-14 18:03:00,69.0,50.0,-100.00,WNW,300,27.0,32.0,51,-99.99,,,-99.99,,2013-05-14 23:03:00,
2013-05-14 18:11:00,70.0,51.0,-100.00,NW,320,29.0,35.0,51,-99.99,,,-99.99,,2013-05-14 23:11:00,
2013-05-14 18:32:00,70.0,51.0,-100.00,NW,320,29.0,35.0,51,-99.99,,,-99.99,,2013-05-14 23:32:00,
2013-05-14 18:44:00,70.0,51.0,-100.00,NW,320,29.0,35.0,51,-99.99,,,-99.99,,2013-05-14 23:44:00,
2013-05-14 18:53:00,70.0,51.0,-100.00,NW,320,29.0,35.0,51,-99.99,,,-99.99,,2013-05-14 23:53:00,
2013-05-14 19:02:00,70.0,51.0,-100.00,NW,320,29.0,35.0,51,-99.99,,,-99.99,,2013-05-15 00:02:00,
2013-05-14 19:32:00,68.0,48.0,-100.00,West,260,26.0,33.0,48,-99.99,,,-99.99,,2013-05-15 00:32:00,
2013-05-14 19:42:00,68.0,48.0,-100.00,West,260,26.0,33.0,48,-99.99,,,-99.99,,2013-05-15 00:42:00,
2013-05-14 19:52:00,68.0,48.0,-100.00,West,260,26.0,33.0,48,-99.99,,,-99.99,,2013-05-15 00:52:00,
2013-05-14 20:01:00,68.0,48.0,-100.00,West,260,26.0,33.0,48,-99.99,,,-99.99,,2013-05-15 01:01:00,
2013-05-14 20:10:00,66.0,46.0,-100.00,West,260,13.0,15.0,50,-99.99,,,-99.99,,2013-05-15 01:10:00,
2013-05-14 20:32:00,66.0,46.0,-100.00,West,260,13.0,15.0,50,-99.99,,,-99.99,,2013-05-15 01:32:00,
2013-05-14 20:42:00,66.0,46.0,-100.00,West,260,13.0,15.0,50,-99.99,,,-99.99,,2013-05-15 01:42:00,
2013-05-14 20:52:00,66.0,46.0,-100.00,West,260,13.0,15.0,50,-99.99,,,-99.99,,2013-05-15 01:52:00,
2013-05-14 21:02:00,66.0,46.0,-100.00,West,260,13.0,15.0,50,-99.99,,,-99.99,,2013-05-15 02:02:00,
2013-05-14 21:10:00,60.0,46.0,-100.00,West,260,4.0,6.0,60,-99.99,,,-99.99,,2013-05-15 02:10:00,
2013-05-14 21:32:00,60.0,46.0,-100.00,West,260,4.0,6.0,60,-99.99,,,-99.99,,2013-05-15 02:32:00,
2013-05-14 21:42:00,60.0,46.0,-100.00,West,260,4.0,6.0,60,-99.99,,,-99.99,,2013-05-15 02:42:00,
2013-05-14 21:52:00,60.0,46.0,-100.00,West,260,4.0,6.0,60,-99.99,,,-99.99,,2013-05-15 02:52:00,
2013-05-14 22:01:00,60.0,46.0,-100.00,West,260,4.0,6.0,60,-99.99,,,-99.99,,2013-05-15 03:01:00,
2013-05-14 22:10:00,56.0,47.0,-100.00,WSW,245,3.0,3.0,73,-99.99,,,-99.99,,2013-05-15 03:10:00,
2013-05-14 22:33:00,56.0,47.0,-100.00,WSW,245,3.0,3.0,73,-99.99,,,-99.99,,2013-05-15 03:33:00,
2013-05-14 22:44:00,56.0,47.0,-100.00,WSW,245,3.0,3.0,73,-99.99,,,-99.99,,2013-05-15 03:44:00,
2013-05-14 22:54:00,56.0,47.0,-100.00,WSW,245,3.0,3.0,73,-99.99,,,-99.99,,2013-05-15 03:54:00,
2013-05-14 23:03:00,56.0,47.0,-100.00,WSW,245,3.0,3.0,73,-99.99,,,-99.99,,2013-05-15 04:03:00,